Location: Zihuatanejo
(17.6330°N, 101.5500°W)
Time: 06:46:16
(UTC-05:00)

Daily predictions for brighter satellites

Satellite Brightness Start Highest point End
(mag) Time Altitude Azimuth Time Altitude Azimuth Time Altitude Azimuth
Cosmos 1680 Rocket 3.5 20:14:38 10° NNW 20:19:53 89° E 20:25:05 10° SSE
Meteor 2-15 Rocket 4.5 20:13:56 10° N 20:20:02 67° E 20:26:04 10° SSE
SWIFT 2.6 20:16:30 10° WNW 20:20:46 64° N 20:25:01 10° E
Palapa 6 Rocket 4.5 20:14:18 10° W 20:21:51 66° SSW 20:28:10 10° ESE
Cosmos 1535 Rocket 4.5 20:16:18 10° S 20:22:28 75° E 20:28:44 10° N
Resurs 01 Rocket 3.4 20:20:55 10° E 20:22:50 13° ENE 20:24:46 10° NE
Cosmos 1544 4.5 20:22:03 10° SE 20:24:34 18° E 20:27:06 10° NE
ATLAS CENTAUR R/B 4.2 20:23:44 10° W 20:25:33 13° WSW 20:27:25 10° SW
Cosmos 2297 4.2 20:23:33 10° S 20:28:44 38° ESE 20:33:56 10° NE
ATLAS 5 CENTAUR R/B 2.4 20:25:47 10° S 20:29:44 30° ESE 20:33:47 10° NE
Cosmos 1605 Rocket 4.3 20:27:05 10° SSE 20:32:54 44° E 20:38:49 10° NNE
Helios 1B rocket 3.8 20:31:12 10° NE 20:33:58 18° E 20:36:44 10° SE
Cosmos 192 4.4 20:29:44 10° N 20:34:32 55° ENE 20:39:19 10° SSE
Delta 198 4.3 20:33:54 10° SSW 20:36:51 24° SSE 20:38:57 15° ESE
Cosmos 1953 3.4 20:34:48 10° SE 20:38:03 23° E 20:41:16 10° NE
PSLV R/B 4.4 20:42:00 10° SSW 20:44:33 23° SE 20:45:24 20° ESE
Cosmos 372 Rocket 4.4 20:40:49 10° SSE 20:45:25 36° E 20:50:03 10° NE
Cosmos 1707 2.9 20:41:59 10° N 20:45:50 78° W 20:49:41 10° S
ALOS 2.5 20:42:50 10° SSE 20:47:19 48° ENE 20:51:49 10° N
NOAA 12 4.2 20:42:11 10° S 20:47:30 83° WSW 20:52:49 10° NNW
Cosmos 1867 3.5 20:43:40 10° SSW 20:49:05 87° ESE 20:54:32 10° NNE
OAO 2 Rocket 3.3 20:44:43 10° SW 20:49:50 72° SE 20:54:07 15° ENE
Cosmos 1000 Rocket 4.5 20:43:55 10° N 20:50:08 87° E 20:56:23 10° S
Meteor 1-24 Rocket 3.8 20:46:52 10° N 20:52:22 54° E 20:58:02 10° SSE
Cosmos 1766 4.0 20:50:07 10° SSW 20:53:54 54° W 20:57:42 10° N
Star 63D 3.7 20:52:27 10° WSW 20:54:43 68° SSE 20:56:29 24° ENE
Spot 2 Rocket 4.0 20:54:40 11° SE 20:59:08 37° ENE 21:03:48 10° N
Cosmos 2123 Rocket 4.1 20:54:09 10° N 21:00:14 52° E 21:06:17 10° SSE
ISS -2.3 21:00:51 10° WSW 21:03:52 36° NW 21:06:54 10° NNE
GPS 2-12 Rocket1 4.3 21:01:09 10° SW 21:05:05 26° SSE 21:06:11 24° SE
Resurs 1-3 4.1 21:03:47 27° ESE 21:05:23 37° ENE 21:09:25 10° N
USA 215 3.6 21:02:45 10° NNE 21:09:10 65° NW 21:15:36 10° SW
COSMOS 2406 3.5 21:04:36 10° NNW 21:10:16 70° WSW 21:15:54 10° S
CZ-3C R/B 0.1 21:09:13 10° WNW 21:11:16 52° NNW 21:11:16 52° NNW
Delta 168 4.0 21:13:08 10° WNW 21:16:19 25° N 21:17:12 22° NNE
Aurora 2 Rocket 3.8 21:11:03 10° W 21:18:11 52° NNW 21:20:55 27° NE
CZ-2D R/B 3.8 21:22:56 42° NNE 21:22:56 42° NNE 21:25:50 10° N
RESURS DK-1 2.9 21:18:28 10° N 21:21:41 40° NE 21:21:41 40° NE
Cosmos 1125 Rocket 4.3 21:19:53 10° SSW 21:24:54 51° WNW 21:29:57 10° N
Cosmos 1459 Rocket 4.1 21:22:19 10° SSE 21:28:24 50° E 21:34:22 10° NNE
Cosmos 2173 Rocket 4.0 21:27:06 10° SSE 21:33:00 53° E 21:38:59 10° NNE
Cosmos 1447 Rocket 4.4 21:32:42 10° N 21:38:45 60° E 21:39:39 55° ESE
Gblst 52 Del rocket 4.3 21:36:05 10° SW 21:42:35 84° NW 21:44:47 41° NNE
Okean 3 Rocket 3.7 21:39:03 10° N 21:43:26 70° W 21:43:49 66° SW
SeaSat 1 2.8 21:42:53 36° S 21:44:46 62° WSW 21:49:37 10° NNW
SL-27 R/B 4.3 21:48:36 10° NW 21:51:13 31° WNW 21:51:13 31° WNW
Resurs 01 Rocket 3.3 21:56:29 18° SSW 21:58:57 31° W 22:02:52 10° NW
ASC 2 Rocket 3.8 21:53:04 10° WSW 21:59:36 70° SW 21:59:36 70° SW
SWIFT 4.0 21:58:32 10° W 22:00:56 31° W 22:00:56 31° W
Mugunghwa Rocket 4.1 22:06:34 10° WSW 22:12:16 67° WNW 22:12:16 67° WNW
Cosmos 2082 Rocket 4.5 22:35:22 10° NNW 22:36:28 16° NNW 22:36:28 16° NNW
